TimeCDT,TemperatureF,Dew PointF,Humidity,Sea Level PressureIn,VisibilityMPH,Wind Direction,Wind SpeedMPH,Gust SpeedMPH,PrecipitationIn,Events,Conditions,WindDirDegrees,DateUTC
12:53 AM,37.0,33.1,86,30.10,10.0,WSW,6.9,-,N/A,,Overcast,250,2013-10-24 05:53:00
1:53 AM,36.0,33.1,89,30.10,10.0,West,5.8,-,N/A,,Overcast,260,2013-10-24 06:53:00
2:53 AM,35.1,32.0,89,30.10,10.0,WSW,5.8,-,N/A,,Overcast,240,2013-10-24 07:53:00
3:53 AM,36.0,32.0,86,30.09,10.0,WSW,6.9,-,N/A,,Overcast,250,2013-10-24 08:53:00
4:30 AM,35.6,33.8,93,30.08,10.0,WSW,8.1,-,N/A,,Overcast,250,2013-10-24 09:30:00
4:37 AM,37.4,33.8,87,30.08,10.0,West,6.9,-,N/A,,Overcast,260,2013-10-24 09:37:00
4:53 AM,37.0,33.1,86,30.10,10.0,West,9.2,-,N/A,,Overcast,270,2013-10-24 09:53:00
5:41 AM,37.4,33.8,87,30.09,10.0,West,8.1,-,N/A,,Overcast,270,2013-10-24 10:41:00
5:53 AM,37.0,34.0,89,30.11,10.0,West,5.8,-,N/A,,Overcast,270,2013-10-24 10:53:00
6:53 AM,36.0,32.0,86,30.12,10.0,West,12.7,24.2,0.00,Snow,Light Snow,280,2013-10-24 11:53:00
7:38 AM,35.6,30.2,81,30.12,9.0,WNW,8.1,-,0.00,,Overcast,290,2013-10-24 12:38:00
7:53 AM,36.0,30.9,82,30.14,9.0,WNW,8.1,-,0.00,,Overcast,290,2013-10-24 12:53:00
8:53 AM,37.0,27.0,67,30.17,10.0,WNW,9.2,18.4,N/A,,Overcast,290,2013-10-24 13:53:00
9:53 AM,37.0,26.1,65,30.19,10.0,WNW,13.8,20.7,N/A,,Overcast,300,2013-10-24 14:53:00
10:00 AM,35.6,26.6,70,30.17,10.0,NW,12.7,20.7,N/A,,Overcast,310,2013-10-24 15:00:00
10:43 AM,37.4,26.6,65,30.19,9.0,NW,12.7,-,0.00,Snow,Light Snow,310,2013-10-24 15:43:00
10:53 AM,37.0,26.1,65,30.21,9.0,WNW,12.7,21.9,0.00,Snow,Light Snow,300,2013-10-24 15:53:00
11:53 AM,39.0,28.0,65,30.23,10.0,NW,12.7,19.6,0.00,,Overcast,320,2013-10-24 16:53:00
12:53 PM,39.9,27.0,60,30.23,10.0,WNW,10.4,18.4,N/A,,Overcast,300,2013-10-24 17:53:00
1:53 PM,42.1,25.0,51,30.24,10.0,WNW,12.7,19.6,N/A,,Overcast,300,2013-10-24 18:53:00
2:53 PM,43.0,26.1,51,30.24,10.0,WNW,11.5,-,N/A,,Overcast,300,2013-10-24 19:53:00
3:53 PM,42.1,25.0,51,30.26,10.0,NW,16.1,20.7,N/A,,Overcast,310,2013-10-24 20:53:00
4:53 PM,41.0,25.0,53,30.27,10.0,NW,15.0,-,N/A,,Overcast,310,2013-10-24 21:53:00
5:53 PM,39.9,23.0,51,30.30,10.0,WNW,12.7,-,N/A,,Overcast,300,2013-10-24 22:53:00
6:53 PM,39.0,24.1,55,30.31,10.0,NW,9.2,-,N/A,,Mostly Cloudy,320,2013-10-24 23:53:00
7:53 PM,37.9,25.0,60,30.34,10.0,NW,15.0,-,N/A,,Overcast,310,2013-10-25 00:53:00
8:53 PM,36.0,24.1,62,30.35,10.0,NW,6.9,-,N/A,,Overcast,310,2013-10-25 01:53:00
9:53 PM,36.0,26.1,67,30.36,10.0,West,3.5,-,N/A,,Overcast,270,2013-10-25 02:53:00
10:53 PM,34.0,26.1,73,30.37,10.0,West,4.6,-,N/A,,Scattered Clouds,270,2013-10-25 03:53:00
11:53 PM,30.0,24.1,79,30.37,10.0,WSW,5.8,-,N/A,,Clear,250,2013-10-25 04:53:00